Year,Month,Day,Hour,Minute,Value (Times are PST for windgust in km/hr)
2008,07,09,00,00,0.00
2008,07,09,00,01,0.00
2008,07,09,00,02,0.00
2008,07,09,00,03,0.00
2008,07,09,00,04,0.00
2008,07,09,00,05,0.00
2008,07,09,00,06,0.00
2008,07,09,00,07,0.00
2008,07,09,00,08,0.00
2008,07,09,00,09,0.00
2008,07,09,00,10,0.00
2008,07,09,00,11,0.00
2008,07,09,00,12,4.80
2008,07,09,01,09,1.60
2008,07,09,01,10,0.00
2008,07,09,01,11,0.00
2008,07,09,01,12,0.00
2008,07,09,01,13,0.00
2008,07,09,01,14,0.00
2008,07,09,01,15,0.00
2008,07,09,01,16,1.60
2008,07,09,01,17,0.00
2008,07,09,01,18,0.00
2008,07,09,01,19,0.00
2008,07,09,01,20,1.60
2008,07,09,01,21,0.00
2008,07,09,01,22,0.00
2008,07,09,01,23,0.00
2008,07,09,01,24,0.00
2008,07,09,01,25,0.00
2008,07,09,01,26,0.00
2008,07,09,01,27,0.00
2008,07,09,01,28,1.60
2008,07,09,01,29,1.60
2008,07,09,01,30,0.00
2008,07,09,01,31,0.00
2008,07,09,01,32,0.00
2008,07,09,01,33,0.00
2008,07,09,01,34,0.00
2008,07,09,01,35,0.00
2008,07,09,01,36,0.00
2008,07,09,01,37,0.00
2008,07,09,01,38,0.00
2008,07,09,01,39,0.00
2008,07,09,01,40,0.00
2008,07,09,01,41,0.00
2008,07,09,01,42,0.00
2008,07,09,01,43,0.00
2008,07,09,01,44,0.00
2008,07,09,01,45,0.00
2008,07,09,01,46,1.60
2008,07,09,01,47,0.00
2008,07,09,01,48,0.00
2008,07,09,01,49,0.00
2008,07,09,01,50,1.60
2008,07,09,01,51,1.60
2008,07,09,01,52,0.00
2008,07,09,01,53,1.60
2008,07,09,01,54,1.60
2008,07,09,01,55,0.00
2008,07,09,01,56,1.60
2008,07,09,01,57,1.60
2008,07,09,01,58,1.60
2008,07,09,01,59,3.20
2008,07,09,02,00,1.60
2008,07,09,02,01,1.60
2008,07,09,02,02,1.60
2008,07,09,02,03,0.00
2008,07,09,02,04,1.60
2008,07,09,02,05,0.00
2008,07,09,02,06,1.60
2008,07,09,02,07,0.00
2008,07,09,02,08,0.00
2008,07,09,02,09,0.00
2008,07,09,02,10,1.60
2008,07,09,02,11,4.80
2008,07,09,02,12,0.00
2008,07,09,02,13,1.60
2008,07,09,02,14,1.60
2008,07,09,02,15,3.20
2008,07,09,02,16,0.00
2008,07,09,02,17,1.60
2008,07,09,02,18,1.60
2008,07,09,02,19,1.60
2008,07,09,02,20,0.00
2008,07,09,02,21,0.00
2008,07,09,02,22,0.00
2008,07,09,02,23,0.00
2008,07,09,02,24,0.00
2008,07,09,02,25,0.00
2008,07,09,02,26,0.00
2008,07,09,02,27,0.00
2008,07,09,02,28,0.00
2008,07,09,02,29,1.60
2008,07,09,02,30,0.00
2008,07,09,02,31,1.60
2008,07,09,02,32,1.60
2008,07,09,02,33,1.60
2008,07,09,02,34,0.00
2008,07,09,02,35,0.00
2008,07,09,02,36,0.00
2008,07,09,02,37,0.00
2008,07,09,02,38,0.00
2008,07,09,02,39,1.60
2008,07,09,02,40,0.00
2008,07,09,02,41,0.00
2008,07,09,02,42,0.00
2008,07,09,02,43,0.00
2008,07,09,02,44,0.00
2008,07,09,02,45,0.00
2008,07,09,02,46,0.00
2008,07,09,02,47,0.00
2008,07,09,02,48,0.00
2008,07,09,02,49,0.00
2008,07,09,02,50,0.00
2008,07,09,02,51,0.00
2008,07,09,02,52,1.60
2008,07,09,02,53,0.00
2008,07,09,02,54,0.00
2008,07,09,02,55,0.00
2008,07,09,02,56,0.00
2008,07,09,02,57,0.00
2008,07,09,02,58,0.00
2008,07,09,02,59,0.00
2008,07,09,03,00,0.00
2008,07,09,03,01,0.00
2008,07,09,03,02,0.00
2008,07,09,03,03,0.00
2008,07,09,03,04,0.00
2008,07,09,03,05,0.00
2008,07,09,03,06,0.00
2008,07,09,03,07,0.00
2008,07,09,03,08,1.60
2008,07,09,03,09,0.00
2008,07,09,03,10,0.00
2008,07,09,03,11,0.00
2008,07,09,03,12,0.00
2008,07,09,03,13,0.00
2008,07,09,03,14,0.00
2008,07,09,03,15,0.00
2008,07,09,03,16,0.00
2008,07,09,03,17,0.00
2008,07,09,03,18,0.00
2008,07,09,03,19,0.00
2008,07,09,03,20,0.00
2008,07,09,03,21,0.00
2008,07,09,03,22,0.00
2008,07,09,03,23,0.00
2008,07,09,03,24,0.00
2008,07,09,03,25,0.00
2008,07,09,03,26,0.00
2008,07,09,03,27,0.00
2008,07,09,03,28,1.60
2008,07,09,03,29,1.60
2008,07,09,03,30,0.00
2008,07,09,03,31,0.00
2008,07,09,03,32,0.00
2008,07,09,03,33,0.00
2008,07,09,03,34,0.00
2008,07,09,03,35,0.00
2008,07,09,03,36,0.00
2008,07,09,03,37,1.60
2008,07,09,03,38,1.60
2008,07,09,03,39,1.60
2008,07,09,03,40,0.00
2008,07,09,03,41,0.00
2008,07,09,03,42,0.00
2008,07,09,03,43,0.00
2008,07,09,03,44,1.60
2008,07,09,03,45,0.00
2008,07,09,03,46,1.60
2008,07,09,03,47,0.00
2008,07,09,03,48,0.00
2008,07,09,03,49,0.00
2008,07,09,03,50,0.00
2008,07,09,03,51,0.00
2008,07,09,03,52,0.00
2008,07,09,03,53,0.00
2008,07,09,03,54,0.00
2008,07,09,03,55,0.00
2008,07,09,03,56,0.00
2008,07,09,03,57,0.00
2008,07,09,03,58,0.00
2008,07,09,03,59,0.00
2008,07,09,04,00,1.60
2008,07,09,04,01,1.60
2008,07,09,04,02,1.60
2008,07,09,04,03,1.60
2008,07,09,04,04,0.00
2008,07,09,04,05,1.60
2008,07,09,04,06,1.60
2008,07,09,04,07,1.60
2008,07,09,04,08,0.00
2008,07,09,04,09,0.00
2008,07,09,04,10,0.00
2008,07,09,04,11,1.60
2008,07,09,04,12,0.00
2008,07,09,04,13,0.00
2008,07,09,04,14,0.00
2008,07,09,04,15,0.00
2008,07,09,04,16,0.00
2008,07,09,04,17,0.00
2008,07,09,04,18,0.00
2008,07,09,04,19,0.00
2008,07,09,04,20,0.00
2008,07,09,04,21,1.60
2008,07,09,04,22,0.00
2008,07,09,04,23,0.00
2008,07,09,04,24,0.00
2008,07,09,04,25,0.00
2008,07,09,04,26,1.60
2008,07,09,04,27,3.20
2008,07,09,04,28,4.80
2008,07,09,04,29,6.40
2008,07,09,04,30,3.20
2008,07,09,04,31,9.60
2008,07,09,04,32,3.20
2008,07,09,04,33,1.60
2008,07,09,04,34,9.60
2008,07,09,04,35,11.30
2008,07,09,04,36,14.50
2008,07,09,04,37,6.40
2008,07,09,04,38,9.60
2008,07,09,04,39,6.40
2008,07,09,04,40,8.10
2008,07,09,04,41,6.40
2008,07,09,04,42,14.50
2008,07,09,04,43,11.30
2008,07,09,04,44,16.10
2008,07,09,04,45,14.50
2008,07,09,04,46,9.60
2008,07,09,04,47,11.30
2008,07,09,04,48,9.60
2008,07,09,04,49,8.10
2008,07,09,04,50,6.40
2008,07,09,04,51,8.10
2008,07,09,04,52,4.80
2008,07,09,04,53,3.20
2008,07,09,04,54,4.80
2008,07,09,04,55,6.40
2008,07,09,04,56,3.20
2008,07,09,04,57,3.20
2008,07,09,04,58,4.80
2008,07,09,04,59,3.20
2008,07,09,05,00,3.20
2008,07,09,05,01,8.10
2008,07,09,05,02,6.40
2008,07,09,05,03,6.40
2008,07,09,05,04,6.40
2008,07,09,05,05,14.50
2008,07,09,05,06,8.10
2008,07,09,05,07,4.80
2008,07,09,05,08,9.60
2008,07,09,05,09,12.90
2008,07,09,05,10,9.60
2008,07,09,05,11,6.40
2008,07,09,05,12,8.10
2008,07,09,05,13,9.60
2008,07,09,05,14,6.40
2008,07,09,05,15,8.10
2008,07,09,05,16,6.40
2008,07,09,05,17,9.60
2008,07,09,05,18,8.10
2008,07,09,05,19,4.80
2008,07,09,05,20,6.40
2008,07,09,05,21,4.80
2008,07,09,05,22,9.60
2008,07,09,05,23,11.30
2008,07,09,05,24,4.80
2008,07,09,05,25,4.80
2008,07,09,05,26,8.10
2008,07,09,05,27,9.60
2008,07,09,05,28,8.10
2008,07,09,05,29,9.60
2008,07,09,05,30,6.40
2008,07,09,05,31,6.40
2008,07,09,05,32,6.40
2008,07,09,05,33,3.20
2008,07,09,05,34,3.20
2008,07,09,05,35,9.60
2008,07,09,05,36,12.90
2008,07,09,05,37,9.60
2008,07,09,05,38,11.30
2008,07,09,05,39,12.90
2008,07,09,05,40,9.60
2008,07,09,05,41,3.20
2008,07,09,05,42,4.80
2008,07,09,05,43,6.40
2008,07,09,05,44,6.40
2008,07,09,05,45,6.40
2008,07,09,05,46,1.60
2008,07,09,05,47,4.80
2008,07,09,05,48,9.60
2008,07,09,05,49,6.40
2008,07,09,05,50,4.80
2008,07,09,05,51,4.80
2008,07,09,05,52,6.40
2008,07,09,05,53,1.60
2008,07,09,05,54,4.80
2008,07,09,05,55,3.20
2008,07,09,05,56,1.60
2008,07,09,05,57,6.40
2008,07,09,05,58,6.40
2008,07,09,05,59,3.20
2008,07,09,06,00,6.40
2008,07,09,06,01,6.40
2008,07,09,06,02,4.80
2008,07,09,06,03,6.40
2008,07,09,06,04,4.80
2008,07,09,06,05,9.60
2008,07,09,06,06,6.40
2008,07,09,06,07,9.60
2008,07,09,06,08,8.10
2008,07,09,06,09,3.20
2008,07,09,06,10,4.80
2008,07,09,06,11,4.80
2008,07,09,06,12,1.60
2008,07,09,06,13,3.20
2008,07,09,06,14,4.80
2008,07,09,06,15,3.20
2008,07,09,06,16,4.80
2008,07,09,06,17,3.20
2008,07,09,06,18,6.40
2008,07,09,06,19,4.80
2008,07,09,06,20,4.80
2008,07,09,06,21,3.20
2008,07,09,06,22,4.80
2008,07,09,06,23,8.10
2008,07,09,06,24,3.20
2008,07,09,06,25,4.80
2008,07,09,06,26,3.20
2008,07,09,06,27,1.60
2008,07,09,06,28,3.20
2008,07,09,06,29,8.10
2008,07,09,06,30,6.40
2008,07,09,06,31,6.40
2008,07,09,06,32,4.80
2008,07,09,06,33,8.10
2008,07,09,06,34,4.80
2008,07,09,06,35,4.80
2008,07,09,06,36,8.10
2008,07,09,06,37,6.40
2008,07,09,06,38,4.80
2008,07,09,06,39,3.20
2008,07,09,06,40,3.20
2008,07,09,06,41,8.10
2008,07,09,06,42,9.60
2008,07,09,06,43,14.50
2008,07,09,06,44,8.10
2008,07,09,06,45,8.10
2008,07,09,06,46,8.10
2008,07,09,06,47,6.40
2008,07,09,06,48,8.10
2008,07,09,06,49,11.30
2008,07,09,06,50,8.10
2008,07,09,06,51,6.40
2008,07,09,06,52,11.30
2008,07,09,06,53,14.50
2008,07,09,06,54,9.60
2008,07,09,06,55,17.70
2008,07,09,06,56,14.50
2008,07,09,06,57,6.40
2008,07,09,06,58,1.60
2008,07,09,06,59,6.40
2008,07,09,07,00,14.50
2008,07,09,07,01,4.80
2008,07,09,07,02,8.10
2008,07,09,07,03,19.30
2008,07,09,07,04,9.60
2008,07,09,07,05,14.50
2008,07,09,07,06,9.60
2008,07,09,07,07,9.60
2008,07,09,07,08,4.80
2008,07,09,07,09,9.60
2008,07,09,07,10,11.30
2008,07,09,07,11,16.10
2008,07,09,07,12,19.30
2008,07,09,07,13,14.50
2008,07,09,07,14,8.10
2008,07,09,07,15,11.30
2008,07,09,07,16,11.30
2008,07,09,07,17,14.50
2008,07,09,07,18,16.10
2008,07,09,07,19,19.30
2008,07,09,07,20,12.90
2008,07,09,07,21,17.70
2008,07,09,07,22,14.50
2008,07,09,07,23,16.10
2008,07,09,07,24,9.60
2008,07,09,07,25,6.40
2008,07,09,07,26,8.10
2008,07,09,07,27,11.30
2008,07,09,07,28,4.80
2008,07,09,07,29,6.40
2008,07,09,07,30,9.60
2008,07,09,07,31,8.10
2008,07,09,07,32,8.10
2008,07,09,07,33,9.60
2008,07,09,07,34,16.10
2008,07,09,07,35,14.50
2008,07,09,07,36,4.80
2008,07,09,07,37,22.50
2008,07,09,07,38,17.70
2008,07,09,07,39,22.50
2008,07,09,07,40,9.60
2008,07,09,07,41,12.90
2008,07,09,07,42,14.50
2008,07,09,07,43,17.70
2008,07,09,07,44,17.70
2008,07,09,07,45,16.10
2008,07,09,07,46,14.50
2008,07,09,07,47,14.50
2008,07,09,07,48,6.40
2008,07,09,07,49,12.90
2008,07,09,07,50,9.60
2008,07,09,07,51,9.60
2008,07,09,07,52,3.20
2008,07,09,07,53,17.70
2008,07,09,07,54,22.50
2008,07,09,07,55,14.50
2008,07,09,07,56,20.90
2008,07,09,07,57,17.70
2008,07,09,07,58,19.30
2008,07,09,07,59,14.50
2008,07,09,08,00,11.30
2008,07,09,08,01,14.50
2008,07,09,08,02,12.90
2008,07,09,08,03,11.30
2008,07,09,08,04,19.30
2008,07,09,08,05,19.30
2008,07,09,08,06,11.30
2008,07,09,08,07,14.50
2008,07,09,08,08,9.60
2008,07,09,08,09,17.70
2008,07,09,08,10,17.70
2008,07,09,08,11,12.90
2008,07,09,08,12,14.50
2008,07,09,08,13,9.60
2008,07,09,08,14,9.60
2008,07,09,08,15,6.40
2008,07,09,08,16,4.80
2008,07,09,08,17,17.70
2008,07,09,08,18,11.30
2008,07,09,08,19,9.60
2008,07,09,08,20,11.30
2008,07,09,08,21,16.10
2008,07,09,08,22,9.60
2008,07,09,08,23,9.60
2008,07,09,08,24,9.60
2008,07,09,08,25,9.60
2008,07,09,08,26,11.30
2008,07,09,08,27,17.70
2008,07,09,08,28,17.70
2008,07,09,08,29,8.10
2008,07,09,08,30,9.60
2008,07,09,08,31,16.10
2008,07,09,08,32,16.10
2008,07,09,08,33,14.50
2008,07,09,08,34,9.60
2008,07,09,08,35,6.40
2008,07,09,08,36,17.70
2008,07,09,08,37,8.10
2008,07,09,08,38,11.30
2008,07,09,08,39,22.50
2008,07,09,08,40,14.50
2008,07,09,08,41,16.10
2008,07,09,08,42,19.30
2008,07,09,08,43,11.30
2008,07,09,08,44,11.30
2008,07,09,08,45,17.70
2008,07,09,08,46,11.30
2008,07,09,08,47,16.10
2008,07,09,08,48,17.70
2008,07,09,08,49,9.60
2008,07,09,08,50,12.90
2008,07,09,08,51,11.30
2008,07,09,08,52,14.50
2008,07,09,08,53,16.10
2008,07,09,08,54,11.30
2008,07,09,08,55,16.10
2008,07,09,08,56,16.10
2008,07,09,08,57,17.70
2008,07,09,08,58,19.30
2008,07,09,08,59,22.50
2008,07,09,09,00,9.60
2008,07,09,09,01,16.10
2008,07,09,09,02,14.50
2008,07,09,09,03,16.10
2008,07,09,09,04,17.70
2008,07,09,09,05,17.70
2008,07,09,09,06,25.70
2008,07,09,09,07,17.70
2008,07,09,09,08,19.30
2008,07,09,09,09,12.90
2008,07,09,09,10,27.40
2008,07,09,09,11,17.70
2008,07,09,09,12,17.70
2008,07,09,09,13,17.70
2008,07,09,09,14,17.70
2008,07,09,09,15,16.10
2008,07,09,09,16,17.70
2008,07,09,09,17,9.60
2008,07,09,09,18,11.30
2008,07,09,09,19,12.90
2008,07,09,09,20,8.10
2008,07,09,09,21,8.10
2008,07,09,09,22,9.60
2008,07,09,09,23,17.70
2008,07,09,09,24,19.30
2008,07,09,09,25,20.90
2008,07,09,09,26,20.90
2008,07,09,09,27,19.30
2008,07,09,09,28,11.30
2008,07,09,09,29,17.70
2008,07,09,09,30,8.10
2008,07,09,09,31,8.10
2008,07,09,09,32,4.80
2008,07,09,09,33,17.70
2008,07,09,09,34,9.60
2008,07,09,09,35,20.90
2008,07,09,09,36,17.70
2008,07,09,09,37,11.30
2008,07,09,09,38,14.50
2008,07,09,09,39,17.70
2008,07,09,09,40,16.10
2008,07,09,09,41,9.60
2008,07,09,09,42,14.50
2008,07,09,09,43,6.40
2008,07,09,09,44,11.30
2008,07,09,09,45,14.50
2008,07,09,09,46,8.10
2008,07,09,09,47,11.30
2008,07,09,09,48,8.10
2008,07,09,09,49,16.10
2008,07,09,09,50,8.10
2008,07,09,09,51,17.70
2008,07,09,09,52,11.30
2008,07,09,09,53,8.10
2008,07,09,09,54,8.10
2008,07,09,09,55,6.40
2008,07,09,09,56,17.70
2008,07,09,09,57,20.90
2008,07,09,09,58,17.70
2008,07,09,09,59,14.50
2008,07,09,10,00,17.70
2008,07,09,10,01,9.60
2008,07,09,10,02,11.30
2008,07,09,10,03,14.50
2008,07,09,10,04,17.70
2008,07,09,10,05,16.10
2008,07,09,10,06,8.10
2008,07,09,10,07,8.10
2008,07,09,10,08,9.60
2008,07,09,10,09,11.30
2008,07,09,10,10,6.40
2008,07,09,10,11,8.10
2008,07,09,10,12,6.40
2008,07,09,10,13,8.10
2008,07,09,10,14,6.40
2008,07,09,10,15,8.10
2008,07,09,10,16,14.50
2008,07,09,10,17,14.50
2008,07,09,10,18,4.80
2008,07,09,10,19,8.10
2008,07,09,10,20,4.80
2008,07,09,10,21,6.40
2008,07,09,10,22,11.30
2008,07,09,10,23,3.20
2008,07,09,10,24,9.60
2008,07,09,10,25,6.40
2008,07,09,10,26,11.30
2008,07,09,10,27,12.90
2008,07,09,10,28,8.10
2008,07,09,10,29,4.80
2008,07,09,10,30,1.60
2008,07,09,10,31,4.80
2008,07,09,10,32,1.60
2008,07,09,10,33,6.40
2008,07,09,10,34,11.30
2008,07,09,10,35,3.20
2008,07,09,10,36,3.20
2008,07,09,10,37,16.10
2008,07,09,10,38,11.30
2008,07,09,10,39,9.60
2008,07,09,10,40,8.10
2008,07,09,10,41,9.60
2008,07,09,10,42,8.10
2008,07,09,10,43,4.80
2008,07,09,10,44,4.80
2008,07,09,10,45,9.60
2008,07,09,10,46,9.60
2008,07,09,10,47,9.60
2008,07,09,10,48,4.80
2008,07,09,10,49,4.80
2008,07,09,10,50,16.10
2008,07,09,10,51,6.40
2008,07,09,10,52,6.40
2008,07,09,10,53,6.40
2008,07,09,10,54,9.60
2008,07,09,10,55,9.60
2008,07,09,10,56,6.40
2008,07,09,10,57,4.80
2008,07,09,10,58,9.60
2008,07,09,10,59,14.50
2008,07,09,11,00,8.10
2008,07,09,11,01,4.80
2008,07,09,11,02,8.10
2008,07,09,11,03,4.80
2008,07,09,11,04,4.80
2008,07,09,11,05,8.10
2008,07,09,11,06,4.80
2008,07,09,11,07,9.60
2008,07,09,11,08,16.10
2008,07,09,11,09,8.10
2008,07,09,11,10,3.20
2008,07,09,11,11,6.40
2008,07,09,11,12,14.50
2008,07,09,11,13,16.10
2008,07,09,11,14,17.70
2008,07,09,11,15,20.90
2008,07,09,11,16,20.90
2008,07,09,11,17,17.70
2008,07,09,11,18,8.10
2008,07,09,11,19,14.50
2008,07,09,11,20,11.30
2008,07,09,11,21,16.10
2008,07,09,11,22,8.10
2008,07,09,11,23,11.30
2008,07,09,11,24,11.30
2008,07,09,11,25,16.10
2008,07,09,11,26,9.60
2008,07,09,11,27,11.30
2008,07,09,11,28,16.10
2008,07,09,11,29,9.60
2008,07,09,11,30,11.30
2008,07,09,11,31,1.60
2008,07,09,11,32,4.80
2008,07,09,11,33,6.40
2008,07,09,11,34,4.80
2008,07,09,11,35,3.20
2008,07,09,11,36,8.10
2008,07,09,11,37,6.40
2008,07,09,11,38,16.10
2008,07,09,11,39,16.10
2008,07,09,11,40,9.60
2008,07,09,11,41,16.10
2008,07,09,11,42,6.40
2008,07,09,11,43,16.10
2008,07,09,11,44,9.60
2008,07,09,11,45,14.50
2008,07,09,11,46,6.40
2008,07,09,11,47,9.60
2008,07,09,11,48,11.30
2008,07,09,11,49,16.10
2008,07,09,11,50,11.30
2008,07,09,11,51,12.90
2008,07,09,11,52,11.30
2008,07,09,11,53,9.60
2008,07,09,11,54,8.10
2008,07,09,11,55,11.30
2008,07,09,11,56,9.60
2008,07,09,11,57,9.60
2008,07,09,11,58,6.40
2008,07,09,11,59,8.10
2008,07,09,12,00,9.60
2008,07,09,12,01,8.10
2008,07,09,12,02,8.10
2008,07,09,12,03,8.10
2008,07,09,12,04,11.30
2008,07,09,12,05,11.30
2008,07,09,12,06,9.60
2008,07,09,12,07,8.10
2008,07,09,12,08,6.40
2008,07,09,12,09,11.30
2008,07,09,12,10,11.30
2008,07,09,12,11,16.10
2008,07,09,12,12,11.30
2008,07,09,12,13,6.40
2008,07,09,12,14,3.20
2008,07,09,12,15,3.20
2008,07,09,12,16,3.20
2008,07,09,12,17,4.80
2008,07,09,12,18,3.20
2008,07,09,12,19,6.40
2008,07,09,12,20,9.60
2008,07,09,12,21,6.40
2008,07,09,12,22,8.10
2008,07,09,12,23,6.40
2008,07,09,12,24,4.80
2008,07,09,12,25,6.40
2008,07,09,12,26,4.80
2008,07,09,12,27,17.70
2008,07,09,12,28,16.10
2008,07,09,12,29,14.50
2008,07,09,12,30,14.50
2008,07,09,12,31,9.60
2008,07,09,12,32,12.90
2008,07,09,12,33,8.10
2008,07,09,12,34,14.50
2008,07,09,12,35,14.50
2008,07,09,12,36,4.80
2008,07,09,12,37,6.40
2008,07,09,12,38,14.50
2008,07,09,12,39,11.30
2008,07,09,12,40,16.10
2008,07,09,12,41,11.30
2008,07,09,12,42,6.40
2008,07,09,12,43,4.80
2008,07,09,12,44,19.30
2008,07,09,12,45,14.50
2008,07,09,12,46,17.70
2008,07,09,12,47,11.30
2008,07,09,12,48,16.10
2008,07,09,12,49,8.10
2008,07,09,12,50,11.30
2008,07,09,12,51,9.60
2008,07,09,12,52,11.30
2008,07,09,12,53,3.20
2008,07,09,12,54,8.10
2008,07,09,12,55,6.40
2008,07,09,12,56,8.10
2008,07,09,12,57,11.30
2008,07,09,12,58,6.40
2008,07,09,12,59,8.10
2008,07,09,13,00,8.10
2008,07,09,13,01,9.60
2008,07,09,13,02,8.10
2008,07,09,13,03,9.60
2008,07,09,13,04,9.60
2008,07,09,13,05,9.60
2008,07,09,13,06,8.10
2008,07,09,13,07,8.10
2008,07,09,13,08,8.10
2008,07,09,13,09,9.60
2008,07,09,13,10,4.80
2008,07,09,13,11,9.60
2008,07,09,13,12,12.90
2008,07,09,13,13,8.10
2008,07,09,13,14,9.60
2008,07,09,13,15,8.10
2008,07,09,13,16,3.20
2008,07,09,13,17,4.80
2008,07,09,13,18,9.60
2008,07,09,13,19,9.60
2008,07,09,13,20,6.40
2008,07,09,13,21,1.60
2008,07,09,13,22,3.20
2008,07,09,13,23,4.80
2008,07,09,13,24,9.60
2008,07,09,13,25,9.60
2008,07,09,13,26,16.10
2008,07,09,13,27,9.60
2008,07,09,13,28,9.60
2008,07,09,13,29,9.60
2008,07,09,13,30,8.10
2008,07,09,13,31,9.60
2008,07,09,13,32,17.70
2008,07,09,13,33,4.80
2008,07,09,13,34,9.60
2008,07,09,13,35,9.60
2008,07,09,13,36,9.60
2008,07,09,13,37,9.60
2008,07,09,13,38,14.50
2008,07,09,13,39,16.10
2008,07,09,13,40,11.30
2008,07,09,13,41,11.30
2008,07,09,13,42,9.60
2008,07,09,13,43,11.30
2008,07,09,13,44,9.60
2008,07,09,13,45,6.40
2008,07,09,13,46,4.80
2008,07,09,13,47,4.80
2008,07,09,13,48,6.40
2008,07,09,13,49,9.60
2008,07,09,13,50,6.40
2008,07,09,13,51,6.40
2008,07,09,13,52,4.80
2008,07,09,13,53,6.40
2008,07,09,13,54,14.50
2008,07,09,13,55,19.30
2008,07,09,13,56,14.50
2008,07,09,13,57,9.60
2008,07,09,13,58,9.60
2008,07,09,13,59,6.40
2008,07,09,14,00,11.30
2008,07,09,14,01,14.50
2008,07,09,14,02,8.10
2008,07,09,14,03,14.50
2008,07,09,14,04,8.10
2008,07,09,14,05,8.10
2008,07,09,14,06,8.10
2008,07,09,14,07,8.10
2008,07,09,14,08,11.30
2008,07,09,14,09,14.50
2008,07,09,14,10,4.80
2008,07,09,14,11,6.40
2008,07,09,14,12,8.10
2008,07,09,14,13,9.60
2008,07,09,14,14,4.80
2008,07,09,14,15,4.80
2008,07,09,14,16,9.60
2008,07,09,14,17,8.10
2008,07,09,14,18,6.40
2008,07,09,14,19,8.10
2008,07,09,14,20,9.60
2008,07,09,14,21,3.20
2008,07,09,14,22,8.10
2008,07,09,14,23,4.80
2008,07,09,14,24,8.10
2008,07,09,14,25,1.60
2008,07,09,14,26,6.40
2008,07,09,14,27,8.10
2008,07,09,14,28,16.10
2008,07,09,14,29,9.60
2008,07,09,14,30,11.30
2008,07,09,14,31,11.30
2008,07,09,14,32,17.70
2008,07,09,14,33,9.60
2008,07,09,14,34,11.30
2008,07,09,14,35,11.30
2008,07,09,14,36,12.90
2008,07,09,14,37,16.10
2008,07,09,14,38,14.50
2008,07,09,14,39,9.60
2008,07,09,14,40,11.30
2008,07,09,14,41,17.70
2008,07,09,14,42,14.50
2008,07,09,14,43,12.90
2008,07,09,14,44,16.10
2008,07,09,14,45,20.90
2008,07,09,14,46,17.70
2008,07,09,14,47,22.50
2008,07,09,14,48,6.40
2008,07,09,14,49,14.50
2008,07,09,14,50,22.50
2008,07,09,14,51,12.90
2008,07,09,14,52,16.10
2008,07,09,14,53,14.50
2008,07,09,14,54,12.90
2008,07,09,14,55,17.70
2008,07,09,14,56,17.70
2008,07,09,14,57,14.50
2008,07,09,14,58,16.10
2008,07,09,14,59,11.30
2008,07,09,15,00,8.10
2008,07,09,15,01,20.90
2008,07,09,15,02,4.80
2008,07,09,15,03,4.80
2008,07,09,15,04,16.10
2008,07,09,15,05,17.70
2008,07,09,15,06,14.50
2008,07,09,15,07,8.10
2008,07,09,15,08,14.50
2008,07,09,15,09,16.10
2008,07,09,15,10,8.10
2008,07,09,15,11,9.60
2008,07,09,15,12,20.90
2008,07,09,15,13,8.10
2008,07,09,15,14,9.60
2008,07,09,15,15,9.60
2008,07,09,15,16,9.60
2008,07,09,15,17,9.60
2008,07,09,15,18,4.80
2008,07,09,15,19,8.10
2008,07,09,15,20,24.20
2008,07,09,15,21,8.10
2008,07,09,15,22,11.30
2008,07,09,15,23,11.30
2008,07,09,15,24,9.60
2008,07,09,15,25,17.70
2008,07,09,15,26,20.90
2008,07,09,15,27,9.60
2008,07,09,15,28,4.80
2008,07,09,15,29,9.60
2008,07,09,15,30,9.60
2008,07,09,15,31,12.90
2008,07,09,15,32,16.10
2008,07,09,15,33,17.70
2008,07,09,15,34,20.90
2008,07,09,15,35,22.50
2008,07,09,15,36,17.70
2008,07,09,15,37,9.60
2008,07,09,15,38,14.50
2008,07,09,15,39,14.50
2008,07,09,15,40,8.10
2008,07,09,15,41,11.30
2008,07,09,15,42,8.10
2008,07,09,15,43,11.30
2008,07,09,15,44,16.10
2008,07,09,15,45,16.10
2008,07,09,15,46,17.70
2008,07,09,15,47,17.70
2008,07,09,15,48,11.30
2008,07,09,15,49,19.30
2008,07,09,15,50,14.50
2008,07,09,15,51,19.30
2008,07,09,15,52,8.10
2008,07,09,15,53,12.90
2008,07,09,15,54,19.30
2008,07,09,15,55,8.10
2008,07,09,15,56,9.60
2008,07,09,15,57,8.10
2008,07,09,15,58,19.30
2008,07,09,15,59,17.70
2008,07,09,16,00,16.10
2008,07,09,16,01,3.20
2008,07,09,16,02,16.10
2008,07,09,16,03,16.10
2008,07,09,16,04,11.30
2008,07,09,16,05,6.40
2008,07,09,16,06,16.10
2008,07,09,16,07,16.10
2008,07,09,16,08,20.90
2008,07,09,16,09,22.50
2008,07,09,16,10,16.10
2008,07,09,16,11,14.50
2008,07,09,16,12,17.70
2008,07,09,16,13,20.90
2008,07,09,16,14,17.70
2008,07,09,16,15,9.60
2008,07,09,16,16,14.50
2008,07,09,16,17,16.10
2008,07,09,16,18,14.50
2008,07,09,16,19,14.50
2008,07,09,16,20,20.90
2008,07,09,16,21,19.30
2008,07,09,16,22,17.70
2008,07,09,16,23,17.70
2008,07,09,16,24,17.70
2008,07,09,16,25,17.70
2008,07,09,16,26,17.70
2008,07,09,16,27,16.10
2008,07,09,16,28,22.50
2008,07,09,16,29,11.30
2008,07,09,16,30,14.50
2008,07,09,16,31,19.30
2008,07,09,16,32,17.70
2008,07,09,16,33,9.60
2008,07,09,16,34,9.60
2008,07,09,16,35,11.30
2008,07,09,16,36,11.30
2008,07,09,16,37,16.10
2008,07,09,16,38,16.10
2008,07,09,16,39,14.50
2008,07,09,16,40,20.90
2008,07,09,16,41,11.30
2008,07,09,16,42,17.70
2008,07,09,16,43,11.30
2008,07,09,16,44,11.30
2008,07,09,16,45,14.50
2008,07,09,16,46,16.10
2008,07,09,16,47,16.10
2008,07,09,16,48,17.70
2008,07,09,16,49,12.90
2008,07,09,16,50,9.60
2008,07,09,16,51,20.90
2008,07,09,16,52,14.50
2008,07,09,16,53,9.60
2008,07,09,16,54,14.50
2008,07,09,16,55,16.10
2008,07,09,16,56,17.70
2008,07,09,16,57,20.90
2008,07,09,16,58,14.50
2008,07,09,16,59,11.30
2008,07,09,17,00,9.60
2008,07,09,17,01,12.90
2008,07,09,17,02,19.30
2008,07,09,17,03,9.60
2008,07,09,17,04,14.50
2008,07,09,17,05,9.60
2008,07,09,17,06,17.70
2008,07,09,17,07,16.10
2008,07,09,17,08,20.90
2008,07,09,17,09,20.90
2008,07,09,17,10,19.30
2008,07,09,17,11,19.30
2008,07,09,17,12,17.70
2008,07,09,17,13,14.50
2008,07,09,17,14,11.30
2008,07,09,17,15,20.90
2008,07,09,17,16,16.10
2008,07,09,17,17,9.60
2008,07,09,17,18,12.90
2008,07,09,17,19,16.10
2008,07,09,17,20,16.10
2008,07,09,17,21,16.10
2008,07,09,17,22,9.60
2008,07,09,17,23,11.30
2008,07,09,17,24,8.10
2008,07,09,17,25,14.50
2008,07,09,17,26,16.10
2008,07,09,17,27,17.70
2008,07,09,17,28,11.30
2008,07,09,17,29,17.70
2008,07,09,17,30,11.30
2008,07,09,17,31,11.30
2008,07,09,17,32,14.50
2008,07,09,17,33,16.10
2008,07,09,17,34,11.30
2008,07,09,17,35,9.60
2008,07,09,17,36,14.50
2008,07,09,17,37,17.70
2008,07,09,17,38,14.50
2008,07,09,17,39,16.10
2008,07,09,17,40,9.60
2008,07,09,17,41,9.60
2008,07,09,17,42,11.30
2008,07,09,17,43,8.10
2008,07,09,17,44,6.40
2008,07,09,17,45,3.20
2008,07,09,17,46,16.10
2008,07,09,17,47,11.30
2008,07,09,17,48,17.70
2008,07,09,17,49,16.10
2008,07,09,17,50,16.10
2008,07,09,17,51,14.50
2008,07,09,17,52,16.10
2008,07,09,17,53,8.10
2008,07,09,17,54,9.60
2008,07,09,17,55,17.70
2008,07,09,17,56,14.50
2008,07,09,17,57,8.10
2008,07,09,17,58,14.50
2008,07,09,17,59,9.60
2008,07,09,18,00,16.10
2008,07,09,18,01,9.60
2008,07,09,18,02,4.80
2008,07,09,18,03,6.40
2008,07,09,18,04,9.60
2008,07,09,18,05,11.30
2008,07,09,18,06,8.10
2008,07,09,18,07,8.10
2008,07,09,18,08,3.20
2008,07,09,18,09,8.10
2008,07,09,18,10,8.10
2008,07,09,18,11,11.30
2008,07,09,18,12,11.30
2008,07,09,18,13,8.10
2008,07,09,18,14,6.40
2008,07,09,18,15,16.10
2008,07,09,18,16,8.10
2008,07,09,18,17,4.80
2008,07,09,18,18,3.20
2008,07,09,18,19,4.80
2008,07,09,18,20,16.10
2008,07,09,18,21,11.30
2008,07,09,18,22,3.20
2008,07,09,18,23,11.30
2008,07,09,18,24,3.20
2008,07,09,18,25,4.80
2008,07,09,18,26,4.80
2008,07,09,18,27,6.40
2008,07,09,18,28,8.10
2008,07,09,18,29,3.20
2008,07,09,18,30,6.40
2008,07,09,18,31,6.40
2008,07,09,18,32,4.80
2008,07,09,18,33,3.20
2008,07,09,18,34,0.00
2008,07,09,18,35,3.20
2008,07,09,18,36,3.20
2008,07,09,18,37,6.40
2008,07,09,18,38,3.20
2008,07,09,18,39,3.20
2008,07,09,18,40,8.10
2008,07,09,18,41,8.10
2008,07,09,18,42,9.60
2008,07,09,18,43,8.10
2008,07,09,18,44,14.50